• In Netherlands
  • List of Countries
  • For 7 days
  • Water Temperature
  • Satellite Maps
  • Weather Map
  • Weather Widgets
  • user-avatar
    Login

    Hourly Weather Kandahar

    Today, 22 February, Wednesday

    Time Temperature Precipitation Wind Pressure Humidity
    00:00 +8°C° 0 mm 1 mps 674 mmHg 46%
    01:00 +8°C° 0 mm 1 mps 674 mmHg 47%
    02:00 +6°C° 0 mm 0 mps 674 mmHg 48%
    03:00 +6°C° 0 mm 0 mps 673 mmHg 48%
    04:00 +5°C° 0 mm 0 mps 673 mmHg 48%
    05:00 +6°C° 0 mm 0 mps 673 mmHg 48%
    06:00 +7°C° 0 mm 1 mps 674 mmHg 47%
    07:00 +7°C° 0 mm 1 mps 674 mmHg 46%
    08:00 +8°C° 0 mm 1 mps 674 mmHg 41%
    09:00 +10°C° 0 mm 1 mps 674 mmHg 36%
    10:00 +11°C° 0 mm 1 mps 675 mmHg 30%
    11:00 +12°C° 0 mm 1 mps 675 mmHg 28%
    12:00 +13°C° 0 mm 1 mps 675 mmHg 25%
    13:00 +14°C° 0 mm 1 mps 675 mmHg 22%
    14:00 +14°C° 0 mm 1 mps 675 mmHg 21%
    15:00 +14°C° 0 mm 1 mps 675 mmHg 20%
    16:00 +15°C° 0 mm 1 mps 674 mmHg 19%
    17:00 +14°C° 0 mm 1 mps 674 mmHg 22%
    18:00 +13°C° 0 mm 1 mps 675 mmHg 26%
    19:00 +13°C° 0 mm 1 mps 675 mmHg 30%
    20:00 +12°C° 0 mm 1 mps 675 mmHg 32%
    21:00 +10°C° 0 mm 0 mps 675 mmHg 33%
    22:00 +9°C° 0 mm 0 mps 675 mmHg 35%
    23:00 +9°C° 0 mm 0 mps 674 mmHg 35%

    Tomorrow, 23 February, Thursday

    Time Temperature Precipitation Wind Pressure Humidity
    00:00 +9°C° 0 mm 0 mps 674 mmHg 35%
    01:00 +8°C° 0 mm 0 mps 674 mmHg 35%
    02:00 +8°C° 0 mm 0 mps 674 mmHg 35%
    03:00 +7°C° 0 mm 0 mps 674 mmHg 35%
    04:00 +7°C° 0 mm 0 mps 674 mmHg 34%
    05:00 +7°C° 0 mm 0 mps 675 mmHg 34%
    06:00 +7°C° 0 mm 0 mps 675 mmHg 34%
    07:00 +7°C° 0 mm 0 mps 675 mmHg 33%
    08:00 +10°C° 0 mm 1 mps 676 mmHg 28%
    09:00 +12°C° 0 mm 1 mps 677 mmHg 23%
    10:00 +14°C° 0 mm 1 mps 678 mmHg 18%
    11:00 +14°C° 0 mm 1 mps 678 mmHg 16%
    12:00 +15°C° 0 mm 1 mps 677 mmHg 15%
    13:00 +16°C° 0 mm 1 mps 677 mmHg 13%
    14:00 +16°C° 0 mm 1 mps 677 mmHg 13%
    15:00 +16°C° 0 mm 1 mps 677 mmHg 13%
    16:00 +18°C° 0 mm 1 mps 677 mmHg 12%
    17:00 +16°C° 0 mm 1 mps 677 mmHg 17%
    18:00 +15°C° 0 mm 1 mps 677 mmHg 21%
    19:00 +14°C° 0 mm 1 mps 677 mmHg 25%
    20:00 +14°C° 0 mm 1 mps 677 mmHg 25%
    21:00 +13°C° 0 mm 1 mps 677 mmHg 25%
    22:00 +13°C° 0 mm 1 mps 677 mmHg 24%
    23:00 +13°C° 0 mm 1 mps 677 mmHg 23%

    Day after tomorrow, 24 February, Friday

    Time Temperature Precipitation Wind Pressure Humidity
    00:00 +13°C° 0 mm 2 mps 677 mmHg 22%
    01:00 +12°C° 0 mm 3 mps 677 mmHg 21%
    02:00 +11°C° 0 mm 3 mps 676 mmHg 22%
    03:00 +11°C° 0 mm 3 mps 676 mmHg 22%
    04:00 +11°C° 0 mm 3 mps 676 mmHg 23%
    05:00 +11°C° 0 mm 3 mps 676 mmHg 23%
    06:00 +11°C° 0 mm 3 mps 676 mmHg 23%
    07:00 +11°C° 0 mm 3 mps 677 mmHg 23%
    08:00 +13°C° 0 mm 3 mps 677 mmHg 19%
    09:00 +14°C° 0 mm 3 mps 678 mmHg 16%
    10:00 +17°C° 0 mm 4 mps 678 mmHg 13%
    11:00 +18°C° 0 mm 4 mps 678 mmHg 15%
    12:00 +18°C° 0 mm 4 mps 677 mmHg 17%
    13:00 +19°C° 0 mm 4 mps 677 mmHg 19%
    14:00 +19°C° 0 mm 4 mps 677 mmHg 24%
    15:00 +19°C° 0 mm 3 mps 677 mmHg 29%
    16:00 +18°C° 0 mm 3 mps 677 mmHg 34%
    17:00 +18°C° 0 mm 2 mps 677 mmHg 40%
    18:00 +18°C° 0 mm 1 mps 677 mmHg 45%
    19:00 +15°C° 0 mm 0 mps 677 mmHg 51%
    20:00 +15°C° 0 mm 1 mps 677 mmHg 51%
    21:00 +15°C° 0 mm 1 mps 677 mmHg 52%
    22:00 +15°C° 0 mm 1 mps 678 mmHg 53%
    23:00 +14°C° 0 mm 2 mps 678 mmHg 56%

    25 February, Saturday

    Time Temperature Precipitation Wind Pressure Humidity
    00:00 +14°C° 0 mm 2 mps 678 mmHg 59%
    01:00 +13°C° 0 mm 2 mps 677 mmHg 62%
    02:00 +13°C° 0 mm 2 mps 677 mmHg 65%
    03:00 +12°C° 0 mm 1 mps 677 mmHg 67%
    04:00 +12°C° 0 mm 1 mps 677 mmHg 70%
    05:00 +12°C° 0 mm 1 mps 677 mmHg 69%
    06:00 +12°C° 0 mm 1 mps 677 mmHg 69%
    07:00 +12°C° 0 mm 1 mps 678 mmHg 68%
    08:00 +13°C° 0 mm 1 mps 679 mmHg 61%
    09:00 +14°C° 0 mm 1 mps 679 mmHg 53%
    10:00 +16°C° 0 mm 2 mps 680 mmHg 45%
    11:00 +17°C° 0 mm 2 mps 679 mmHg 40%
    12:00 +17°C° 0 mm 3 mps 679 mmHg 34%
    13:00 +18°C° 0 mm 4 mps 679 mmHg 29%
    14:00 +18°C° 0 mm 4 mps 678 mmHg 28%
    15:00 +18°C° 0 mm 4 mps 678 mmHg 27%
    16:00 +17°C° 0 mm 5 mps 678 mmHg 26%
    17:00 +18°C° 0 mm 4 mps 678 mmHg 28%
    18:00 +17°C° 0 mm 4 mps 678 mmHg 31%
    19:00 +16°C° 0 mm 3 mps 678 mmHg 34%
    20:00 +14°C° 0 mm 3 mps 678 mmHg 36%
    21:00 +14°C° 0 mm 3 mps 678 mmHg 38%
    22:00 +13°C° 0 mm 3 mps 678 mmHg 39%
    23:00 +13°C° 0 mm 2 mps 677 mmHg 41%

    26 February, Sunday

    Time Temperature Precipitation Wind Pressure Humidity
    00:00 +13°C° 0 mm 2 mps 677 mmHg 42%
    01:00 +12°C° 0 mm 2 mps 677 mmHg 43%
    02:00 +12°C° 0 mm 2 mps 676 mmHg 44%
    03:00 +11°C° 0 mm 1 mps 676 mmHg 44%
    04:00 +11°C° 0 mm 1 mps 676 mmHg 45%
    05:00 +10°C° 0 mm 1 mps 676 mmHg 45%
    06:00 +10°C° 0 mm 1 mps 676 mmHg 45%
    07:00 +10°C° 0 mm 1 mps 676 mmHg 45%
    08:00 +12°C° 0 mm 1 mps 677 mmHg 40%
    09:00 +13°C° 0 mm 1 mps 677 mmHg 35%
    10:00 +14°C° 0 mm 1 mps 678 mmHg 30%
    11:00 +15°C° 0 mm 1 mps 677 mmHg 28%
    12:00 +16°C° 0 mm 1 mps 677 mmHg 26%
    13:00 +16°C° 0 mm 1 mps 676 mmHg 24%
    14:00 +18°C° 0 mm 1 mps 676 mmHg 22%
    15:00 +18°C° 0 mm 1 mps 676 mmHg 21%
    16:00 +18°C° 0 mm 1 mps 676 mmHg 19%
    17:00 +16°C° 0 mm 1 mps 676 mmHg 21%
    18:00 +16°C° 0 mm 1 mps 676 mmHg 24%
    19:00 +15°C° 0 mm 1 mps 676 mmHg 26%
    20:00 +15°C° 0 mm 1 mps 676 mmHg 28%
    21:00 +14°C° 0 mm 1 mps 676 mmHg 30%
    22:00 +12°C° 0 mm 0 mps 676 mmHg 32%
    23:00 +12°C° 0 mm 0 mps 676 mmHg 33%

    27 February, Monday

    Time Temperature Precipitation Wind Pressure Humidity
    00:00 +11°C° 0 mm 0 mps 675 mmHg 33%
    01:00 +11°C° 0 mm 0 mps 675 mmHg 34%
    02:00 +10°C° 0 mm 0 mps 675 mmHg 34%
    03:00 +10°C° 0 mm 0 mps 675 mmHg 35%
    04:00 +10°C° 0 mm 0 mps 675 mmHg 35%
    05:00 +10°C° 0 mm 0 mps 675 mmHg 35%
    06:00 +10°C° 0 mm 0 mps 676 mmHg 35%
    07:00 +10°C° 0 mm 0 mps 677 mmHg 35%
    08:00 +11°C° 0 mm 0 mps 677 mmHg 30%
    09:00 +13°C° 0 mm 0 mps 678 mmHg 26%
    10:00 +14°C° 0 mm 0 mps 678 mmHg 21%
    11:00 +16°C° 0 mm 1 mps 678 mmHg 20%
    12:00 +18°C° 0 mm 1 mps 678 mmHg 19%
    13:00 +18°C° 0 mm 1 mps 677 mmHg 18%
    14:00 +19°C° 0 mm 1 mps 677 mmHg 17%
    15:00 +18°C° 0 mm 2 mps 677 mmHg 17%
    16:00 +18°C° 0 mm 2 mps 677 mmHg 16%
    17:00 +17°C° 0 mm 2 mps 677 mmHg 19%
    18:00 +17°C° 0 mm 2 mps 677 mmHg 22%
    19:00 +16°C° 0 mm 2 mps 677 mmHg 24%
    20:00 +15°C° 0 mm 2 mps 677 mmHg 26%
    21:00 +15°C° 0 mm 2 mps 677 mmHg 28%
    22:00 +14°C° 0 mm 1 mps 677 mmHg 30%
    23:00 +13°C° 0 mm 1 mps 677 mmHg 32%
    Show more